TimeCDT,TemperatureF,Dew PointF,Humidity,Sea Level PressureIn,VisibilityMPH,Wind Direction,Wind SpeedMPH,Gust SpeedMPH,PrecipitationIn,Events,Conditions,WindDirDegrees,DateUTC
12:53 AM,46.9,45.0,93,30.00,10.0,Calm,Calm,-,N/A,,Clear,0,2012-11-02 05:53:00
1:53 AM,46.0,44.1,93,29.98,10.0,Calm,Calm,-,N/A,,Clear,0,2012-11-02 06:53:00
2:53 AM,46.0,45.0,96,29.98,10.0,Calm,Calm,-,N/A,,Clear,0,2012-11-02 07:53:00
3:53 AM,46.0,45.0,96,29.97,10.0,Calm,Calm,-,N/A,,Clear,0,2012-11-02 08:53:00
4:53 AM,46.9,45.0,93,29.98,10.0,Calm,Calm,-,N/A,,Clear,0,2012-11-02 09:53:00
5:53 AM,46.0,45.0,96,29.98,10.0,Calm,Calm,-,N/A,,Clear,0,2012-11-02 10:53:00
6:53 AM,48.0,45.0,89,29.99,10.0,Calm,Calm,-,N/A,,Clear,0,2012-11-02 11:53:00
7:53 AM,53.1,46.9,80,29.99,10.0,Calm,Calm,-,N/A,,Clear,0,2012-11-02 12:53:00
8:53 AM,68.0,55.0,63,30.01,10.0,Calm,Calm,-,N/A,,Clear,0,2012-11-02 13:53:00
9:53 AM,86.0,55.9,36,30.01,10.0,South,6.9,-,N/A,,Clear,190,2012-11-02 14:53:00
10:53 AM,91.0,57.0,32,30.01,10.0,South,4.6,-,N/A,,Clear,180,2012-11-02 15:53:00
11:53 AM,93.0,57.9,31,30.01,10.0,SW,6.9,-,N/A,,Clear,220,2012-11-02 16:53:00
12:53 PM,-9999,-9999,N/A,29.99,10.0,SSW,6.9,-,N/A,,Clear,200,2012-11-02 17:53:00
1:53 PM,-9999,-9999,N/A,29.97,10.0,Variable,4.6,-,N/A,,Clear,0,2012-11-02 18:53:00
2:53 PM,-9999,-9999,N/A,29.96,10.0,SSW,6.9,-,N/A,,Clear,210,2012-11-02 19:53:00
3:53 PM,81.0,59.0,47,29.95,10.0,SW,5.8,-,N/A,,Clear,220,2012-11-02 20:53:00
4:53 PM,80.1,59.0,48,29.95,10.0,SW,5.8,-,N/A,,Clear,230,2012-11-02 21:53:00
5:53 PM,73.9,61.0,64,29.96,10.0,Calm,Calm,-,N/A,,Clear,0,2012-11-02 22:53:00
6:53 PM,64.0,59.0,84,29.97,10.0,Calm,Calm,-,N/A,,Clear,0,2012-11-02 23:53:00
7:53 PM,61.0,60.1,97,29.98,9.0,Calm,Calm,-,N/A,,Clear,0,2012-11-03 00:53:00
8:53 PM,60.1,59.0,96,29.99,8.0,Calm,Calm,-,N/A,,Clear,0,2012-11-03 01:53:00
9:53 PM,57.0,57.0,100,30.00,3.0,Calm,Calm,-,N/A,,Clear,0,2012-11-03 02:53:00
9:55 PM,57.2,57.2,100,30.00,1.2,Calm,Calm,-,N/A,,Clear,0,2012-11-03 02:55:00
10:08 PM,57.2,57.2,100,30.00,3.0,Calm,Calm,-,N/A,,Clear,0,2012-11-03 03:08:00
10:53 PM,57.9,57.0,97,30.00,8.0,Calm,Calm,-,N/A,,Clear,0,2012-11-03 03:53:00
11:53 PM,57.0,55.0,93,30.01,10.0,Calm,Calm,-,N/A,,Clear,0,2012-11-03 04:53:00